TimeCDT,TemperatureF,Dew PointF,Humidity,Sea Level PressureIn,VisibilityMPH,Wind Direction,Wind SpeedMPH,Gust SpeedMPH,PrecipitationIn,Events,Conditions,WindDirDegrees,DateUTC
12:12 AM,46.4,44.6,93,30.32,10.0,Calm,Calm,-,N/A,,Clear,0,2013-09-16 05:12:00
12:32 AM,44.6,42.8,93,30.33,10.0,Calm,Calm,-,N/A,,Clear,0,2013-09-16 05:32:00
12:53 AM,42.8,42.8,100,30.33,10.0,Calm,Calm,-,N/A,,Clear,0,2013-09-16 05:53:00
1:12 AM,44.6,42.8,93,30.33,10.0,Calm,Calm,-,N/A,,Clear,0,2013-09-16 06:12:00
1:33 AM,44.6,42.8,93,30.34,10.0,NE,3.5,-,N/A,,Clear,40,2013-09-16 06:33:00
1:53 AM,42.8,41.0,93,30.34,10.0,Calm,Calm,-,N/A,,Clear,0,2013-09-16 06:53:00
2:12 AM,41.0,39.2,93,30.34,10.0,Calm,Calm,-,N/A,,Clear,0,2013-09-16 07:12:00
2:33 AM,41.0,39.2,93,30.34,7.0,Calm,Calm,-,N/A,,Clear,0,2013-09-16 07:33:00
2:53 AM,39.2,39.2,100,30.35,5.0,Calm,Calm,-,N/A,,Clear,0,2013-09-16 07:53:00
3:12 AM,39.2,39.2,100,30.35,7.0,Calm,Calm,-,N/A,,Clear,0,2013-09-16 08:12:00
3:33 AM,39.2,39.2,100,30.35,7.0,Calm,Calm,-,N/A,,Clear,0,2013-09-16 08:33:00
3:53 AM,37.4,37.4,100,30.35,10.0,Calm,Calm,-,N/A,,Clear,0,2013-09-16 08:53:00
4:12 AM,39.2,39.2,100,30.35,10.0,Calm,Calm,-,N/A,,Clear,0,2013-09-16 09:12:00
4:33 AM,37.4,37.4,100,30.36,10.0,Calm,Calm,-,N/A,,Clear,0,2013-09-16 09:33:00
4:53 AM,37.4,37.4,100,30.36,10.0,Calm,Calm,-,N/A,,Clear,0,2013-09-16 09:53:00
5:12 AM,37.4,37.4,100,30.37,10.0,Calm,Calm,-,N/A,,Clear,0,2013-09-16 10:12:00
5:33 AM,37.4,37.4,100,30.37,10.0,Calm,Calm,-,N/A,,Clear,0,2013-09-16 10:33:00
5:52 AM,37.4,37.4,100,30.38,10.0,Calm,Calm,-,N/A,,Clear,0,2013-09-16 10:52:00
6:12 AM,37.4,37.4,100,30.38,10.0,Calm,Calm,-,N/A,,Clear,0,2013-09-16 11:12:00
6:33 AM,37.4,37.4,100,30.39,10.0,Calm,Calm,-,N/A,,Clear,0,2013-09-16 11:33:00
6:52 AM,37.4,35.6,93,30.39,10.0,Calm,Calm,-,N/A,,Clear,0,2013-09-16 11:52:00
7:13 AM,37.4,37.4,100,30.39,10.0,Calm,Calm,-,N/A,,Clear,0,2013-09-16 12:13:00
7:33 AM,37.4,37.4,100,30.40,10.0,Calm,Calm,-,N/A,,Clear,0,2013-09-16 12:33:00
7:52 AM,39.2,39.2,100,30.40,10.0,ENE,3.5,-,N/A,,Clear,70,2013-09-16 12:52:00
8:13 AM,42.8,42.8,100,30.40,10.0,ENE,4.6,-,N/A,,Clear,70,2013-09-16 13:13:00
8:32 AM,42.8,42.8,100,30.40,10.0,East,6.9,-,N/A,,Clear,80,2013-09-16 13:32:00
8:52 AM,44.6,42.8,93,30.40,10.0,East,5.8,-,N/A,,Clear,90,2013-09-16 13:52:00
9:13 AM,46.4,44.6,93,30.40,10.0,East,4.6,-,N/A,,Clear,80,2013-09-16 14:13:00
9:33 AM,48.2,44.6,87,30.41,10.0,SE,5.8,-,N/A,,Clear,130,2013-09-16 14:33:00
9:52 AM,50.0,44.6,82,30.41,10.0,East,8.1,-,N/A,,Scattered Clouds,90,2013-09-16 14:52:00
10:13 AM,50.0,44.6,82,30.41,10.0,SE,4.6,-,N/A,,Mostly Cloudy,130,2013-09-16 15:13:00
10:32 AM,51.8,44.6,76,30.41,10.0,ESE,5.8,-,N/A,,Scattered Clouds,120,2013-09-16 15:32:00
10:52 AM,53.6,44.6,72,30.41,10.0,Calm,Calm,-,N/A,,Scattered Clouds,0,2013-09-16 15:52:00
11:13 AM,53.6,44.6,72,30.41,10.0,ESE,5.8,-,N/A,,Scattered Clouds,110,2013-09-16 16:13:00
11:32 AM,53.6,44.6,72,30.41,10.0,Calm,Calm,-,N/A,,Scattered Clouds,0,2013-09-16 16:32:00
11:52 AM,55.4,46.4,72,30.40,10.0,ESE,4.6,-,N/A,,Scattered Clouds,120,2013-09-16 16:52:00
12:13 PM,57.2,44.6,63,30.40,10.0,East,6.9,-,N/A,,Clear,90,2013-09-16 17:13:00
12:32 PM,57.2,44.6,63,30.39,10.0,East,5.8,-,N/A,,Clear,90,2013-09-16 17:32:00
12:53 PM,59.0,44.6,59,30.39,10.0,ESE,4.6,-,N/A,,Clear,110,2013-09-16 17:53:00
1:12 PM,60.8,44.6,55,30.38,10.0,Calm,Calm,-,N/A,,Clear,0,2013-09-16 18:12:00
1:32 PM,60.8,44.6,55,30.38,10.0,SE,3.5,-,N/A,,Clear,130,2013-09-16 18:32:00
1:53 PM,62.6,44.6,52,30.37,10.0,ESE,6.9,-,N/A,,Clear,120,2013-09-16 18:53:00
2:12 PM,62.6,44.6,52,30.36,10.0,SE,4.6,-,N/A,,Clear,130,2013-09-16 19:12:00
2:32 PM,62.6,42.8,48,30.36,10.0,SSE,4.6,-,N/A,,Clear,150,2013-09-16 19:32:00
2:53 PM,62.6,44.6,52,30.35,10.0,ESE,5.8,-,N/A,,Clear,120,2013-09-16 19:53:00
3:12 PM,64.4,44.6,49,30.34,10.0,ESE,5.8,-,N/A,,Clear,120,2013-09-16 20:12:00
3:32 PM,64.4,42.8,45,30.33,10.0,SE,5.8,-,N/A,,Clear,140,2013-09-16 20:32:00
3:53 PM,64.4,42.8,45,30.32,10.0,East,8.1,-,N/A,,Clear,100,2013-09-16 20:53:00
4:12 PM,64.4,42.8,45,30.31,10.0,Calm,Calm,-,N/A,,Clear,0,2013-09-16 21:12:00
4:32 PM,64.4,42.8,45,30.30,10.0,Calm,Calm,-,N/A,,Clear,0,2013-09-16 21:32:00
4:53 PM,64.4,42.8,45,30.29,10.0,ESE,5.8,-,N/A,,Clear,120,2013-09-16 21:53:00
5:12 PM,64.4,42.8,45,30.29,10.0,ESE,5.8,-,N/A,,Clear,120,2013-09-16 22:12:00
5:32 PM,64.4,44.6,49,30.29,10.0,SE,4.6,-,N/A,,Clear,130,2013-09-16 22:32:00
5:53 PM,64.4,42.8,45,30.28,10.0,ESE,4.6,-,N/A,,Clear,120,2013-09-16 22:53:00
6:12 PM,62.6,42.8,48,30.28,10.0,ESE,4.6,-,N/A,,Clear,120,2013-09-16 23:12:00
6:32 PM,62.6,44.6,52,30.28,10.0,ESE,4.6,-,N/A,,Clear,110,2013-09-16 23:32:00
6:53 PM,59.0,44.6,59,30.28,10.0,ESE,3.5,-,N/A,,Clear,110,2013-09-16 23:53:00
7:12 PM,55.4,44.6,67,30.27,10.0,ESE,4.6,-,N/A,,Clear,120,2013-09-17 00:12:00
7:32 PM,53.6,44.6,72,30.27,7.0,ESE,3.5,-,N/A,,Clear,120,2013-09-17 00:32:00
7:53 PM,51.8,44.6,76,30.27,10.0,ESE,4.6,-,N/A,,Clear,120,2013-09-17 00:53:00
8:12 PM,50.0,44.6,82,30.27,10.0,ESE,4.6,-,N/A,,Clear,110,2013-09-17 01:12:00
8:32 PM,50.0,44.6,82,30.28,10.0,ESE,4.6,-,N/A,,Clear,110,2013-09-17 01:32:00
8:53 PM,48.2,44.6,87,30.27,10.0,ESE,4.6,-,N/A,,Clear,110,2013-09-17 01:53:00
9:12 PM,48.2,42.8,82,30.27,10.0,SE,3.5,-,N/A,,Clear,130,2013-09-17 02:12:00
9:33 PM,48.2,42.8,82,30.27,10.0,SE,3.5,-,N/A,,Clear,140,2013-09-17 02:33:00
9:52 PM,48.2,42.8,82,30.27,10.0,SE,3.5,-,N/A,,Clear,130,2013-09-17 02:52:00
10:12 PM,48.2,42.8,82,30.27,10.0,SE,3.5,-,N/A,,Clear,130,2013-09-17 03:12:00
10:33 PM,48.2,42.8,82,30.27,10.0,SE,3.5,-,N/A,,Clear,130,2013-09-17 03:33:00
10:52 PM,46.4,42.8,87,30.27,10.0,Calm,Calm,-,N/A,,Clear,0,2013-09-17 03:52:00
11:12 PM,46.4,42.8,87,30.26,10.0,SE,3.5,-,N/A,,Clear,140,2013-09-17 04:12:00
11:33 PM,46.4,42.8,87,30.27,10.0,Calm,Calm,-,N/A,,Clear,0,2013-09-17 04:33:00
11:52 PM,46.4,42.8,87,30.27,10.0,South,3.5,-,N/A,,Clear,170,2013-09-17 04:52:00